[[{"header":{"parameterUnit":"m.s-1","parameterCategory":1,"la1":30.2991,"la2":30.254,"lo1":-89.0895,"lo2":-89.0444,"dy":0.0017,"dx":0.0017,"nx":28,"ny":28,"refTime":"2025-01-07T09:00:00:Z","depth":0,"parameterNumber":2,"parameterNumberName":"U-component_of_WINDS"},"data":[0,0,0,0,0,0,0,0,0,0,0,0,0,0,0,0,0,0,0,0,0,0,0,0,0,0,0,0,0,0,0,0,0,0,0,0,0,0,0,0,0,0,0,0,0,0,0,0,0,0,0,0,0,0,0,0,0,0,1.381,1.381,0,1.3804,1.3804,1.3804,1.3777,1.3776,1.3775,1.3775,1.3768,1.3769,1.3769,0,0,0,0,0,0,0,0,0,0,0,0,0,1.3798,1.3799,1.381,1.381,1.381,1.3804,1.3804,1.3804,1.3777,1.3776,1.3775,1.3775,1.3768,1.3769,1.3769,0,0,0,0,0,0,0,0,0,0,0,0,0,1.3799,1.3799,1.381,1.3796,1.3794,1.3804,1.3804,1.3804,1.3777,1.3776,1.3775,1.3774,1.3768,1.3769,1.3769,1.3792,0,0,1.3771,1.3771,0,0,0,0,0,0,0,0,1.3799,1.3799,1.3798,1.3797,1.3795,1.379,1.3797,1.38,1.3777,1.3783,1.3775,1.3774,1.3776,1.3776,1.3777,1.3792,1.3792,1.3771,1.3772,1.3772,1.3772,0,0,0,0,0,0,0,1.3799,1.38,1.3807,1.3798,1.3796,1.379,1.3789,1.3798,1.3785,1.3783,1.3781,1.3781,1.3775,1.3777,1.3777,1.3792,1.3771,1.3772,1.3772,1.3772,1.3826,1.3827,0,0,0,0,0,0,1.3801,1.38,1.3808,1.3807,1.3795,1.3791,1.379,1.3793,1.3785,1.3783,1.3781,1.3779,1.3776,1.3776,1.3777,1.3803,1.3772,1.3773,1.3773,1.3825,1.3826,1.3827,0,0,0,0,0,0,1.3801,1.3802,1.3808,1.3803,1.3803,1.3792,1.3796,1.3793,1.3794,1.3784,1.3782,1.3785,1.3775,1.3776,1.3789,1.3803,1.3773,1.3773,1.3824,1.3825,1.3827,1.3857,0,0,0,0,0,0,1.3801,1.3802,1.381,1.3803,1.3804,1.382,1.3796,1.3794,1.3795,1.3793,1.3787,1.3785,1.3775,1.3788,1.3789,1.3803,1.3774,1.3822,1.3824,1.3826,1.3854,1.3859,1.3863,0,0,0,0,0,1.38,1.3819,1.3811,1.3812,1.3814,1.3821,1.3821,1.3809,1.3797,1.3805,1.3799,1.3785,1.3801,1.379,1.3791,1.3805,1.3821,1.3824,1.3826,1.3852,1.3858,1.3863,0,0,0,0,0,0,1.3827,1.3817,1.3809,1.3825,1.3824,1.3816,1.3826,1.3815,1.3817,1.3815,1.38,1.3799,1.3814,1.3811,1.3798,1.3827,1.3809,1.3812,1.3829,1.3834,1.3838,1.3838,1.3774,0,0,0,0,0,1.3835,1.3842,1.3833,1.3848,1.3848,1.3838,1.384,1.3831,1.383,1.3829,1.3823,1.3822,1.3827,1.383,1.3834,1.3854,1.3853,1.3865,1.3869,1.3873,1.3875,1.3886,1.3891,1.3835,1.3835,1.3835,0,0,1.3851,1.3847,1.3852,1.3854,1.3852,1.3859,1.3837,1.3846,1.3851,1.383,1.3842,1.3838,1.3836,1.3853,1.386,1.3851,1.389,1.3876,1.3878,1.3879,1.3889,1.3894,1.3899,1.3837,1.3836,1.3836,0,0,1.3884,1.3882,1.3895,1.3894,1.3891,1.3884,1.3887,1.3882,1.3878,1.3891,1.3875,1.3882,1.389,1.3889,1.389,1.3925,1.3912,1.3927,1.3949,1.396,1.3964,1.3968,1.3981,1.3985,1.3929,1.3929,1.3929,0,1.3905,1.3915,1.3903,1.3912,1.3914,1.3896,1.3909,1.3909,1.3908,1.391,1.3899,1.391,1.3907,1.3924,1.3933,1.3934,1.3938,1.3927,1.3965,1.3968,1.3972,1.3984,1.3988,1.3931,1.3931,1.3931,1.393,0,1.394,1.3948,1.3959,1.3959,1.3962,1.3973,1.3963,1.3968,1.3959,1.3953,1.3966,1.3963,1.3966,1.3969,1.3961,1.3985,1.398,1.3967,1.3948,1.3979,1.399,1.3994,1.3933,1.3933,1.3932,1.3932,0,0,1.3988,1.3983,1.3987,1.3987,1.3984,1.399,1.4001,1.4004,1.4009,1.4009,1.4018,1.4027,1.4016,1.4017,1.4008,1.4018,1.4046,1.4004,1.4004,1.4012,1.4073,1.4082,1.4088,1.4038,1.4039,1.404,1.4074,0,1.402,1.4038,1.4029,1.4049,1.4056,1.404,1.405,1.4049,1.4045,1.405,1.4045,1.4051,1.4036,1.4037,1.4046,1.4041,1.4058,1.4038,1.4047,1.4047,1.4047,1.4093,1.4102,1.4134,1.4078,1.4078,1.4079,0,1.4059,1.4062,1.4082,1.4079,1.4082,1.4091,1.4094,1.4099,1.4099,1.4095,1.4097,1.4086,1.4097,1.408,1.4095,1.4082,1.4085,1.4083,1.4084,1.4084,1.4064,1.4094,1.4144,1.4149,1.4085,1.4085,1.4084,0,1.4092,1.4101,1.4115,1.4115,1.4112,1.4118,1.4117,1.4116,1.4119,1.4122,1.4124,1.4128,1.413,1.4134,1.4125,1.4113,1.4142,1.4123,1.4139,1.4139,1.4145,1.4144,1.4196,1.4148,1.4148,1.4148,1.4148,0,1.4128,1.4141,1.4129,1.4138,1.4153,1.4142,1.4157,1.4154,1.4153,1.4161,1.4148,1.4155,1.4144,1.415,1.4144,1.4158,1.4159,1.4156,1.4154,1.4157,1.4157,1.4158,1.4155,1.4149,1.4149,1.4148,1.4148,0,1.4167,1.4159,1.4173,1.4169,1.4169,1.418,1.4176,1.4184,1.418,1.419,1.4192,1.4184,1.4191,1.4183,1.419,1.4185,1.4204,1.4199,1.4205,1.4203,1.4219,1.4217,1.4272,1.4279,1.4227,1.4228,1.4228,0,1.4189,1.42,1.4197,1.4201,1.4201,1.4209,1.4212,1.4202,1.4206,1.4207,1.4215,1.4222,1.4226,1.4239,1.4234,1.4239,1.4234,1.4253,1.4234,1.4237,1.4234,1.4233,1.4234,1.4256,1.4257,1.4257,1.4258,0,1.4231,1.4228,1.4233,1.4238,1.4242,1.4245,1.4247,1.4252,1.4242,1.4247,1.4255,1.4259,1.4266,1.4273,1.4277,1.4276,1.4265,1.4264,1.4268,1.427,1.4273,1.4272,1.4214,1.4262,1.4262,1.4261,1.4261,1.4261,1.4262,1.4271,1.4271,1.4278,1.4278,1.4281,1.4289,1.4285,1.4291,1.4297,1.4291,1.43,1.4301,1.4305,1.4306,1.4313,1.4305,1.4311,1.4312,1.4314,1.4316,1.4273,1.4314,1.4314,1.4314,1.4314,1.4314,0,1.4303,1.4303,1.4309,1.4313,1.4319,1.4309,1.4311,1.4317,1.4325,1.4327,1.4332,1.4341,1.4348,1.4344,1.435,1.4357,1.4352,1.4359,1.4358,1.4358,1.4323,1.4319,1.4363,1.4363,1.4363,1.4363,1.4363,1.4363,1.4325,1.4339,1.4336,1.435,1.435,1.4359,1.4361,1.4364,1.4365,1.4376,1.4382,1.438,1.4379,1.4385,1.4391,1.439,1.4393,1.4401,1.4398,1.4365,1.436,1.4356,1.4352,1.4402,1.4402,1.4433,1.4433,1.4433]},{"header":{"parameterUnit":"m.s-1","parameterCategory":1,"la1":30.2991,"la2":30.254,"lo1":-89.0895,"lo2":-89.0444,"dy":0.0017,"dx":0.0017,"nx":28,"ny":28,"refTime":"2025-01-07T09:00:00:Z","depth":0,"parameterNumber":3,"parameterNumberName":"V-component_of_WINDS"},"data":[0,0,0,0,0,0,0,0,0,0,0,0,0,0,0,0,0,0,0,0,0,0,0,0,0,0,0,0,0,0,0,0,0,0,0,0,0,0,0,0,0,0,0,0,0,0,0,0,0,0,0,0,0,0,0,0,0,0,-5.8276,-5.8277,0,-5.8433,-5.8435,-5.8437,-5.8385,-5.8382,-5.8379,-5.8375,-5.8533,-5.854,-5.8547,0,0,0,0,0,0,0,0,0,0,0,0,0,-5.7925,-5.7932,-5.8275,-5.8277,-5.8279,-5.8433,-5.8435,-5.8437,-5.8386,-5.8382,-5.8378,-5.8374,-5.853,-5.8539,-5.8548,0,0,0,0,0,0,0,0,0,0,0,0,0,-5.8079,-5.7934,-5.8275,-5.8272,-5.8274,-5.8433,-5.8435,-5.8438,-5.8387,-5.8382,-5.8377,-5.8372,-5.8527,-5.8538,-5.8549,-5.8718,0,0,-5.8582,-5.8587,0,0,0,0,0,0,0,0,-5.8071,-5.8092,-5.8271,-5.8273,-5.8275,-5.8385,-5.8369,-5.8532,-5.8388,-5.8344,-5.8375,-5.8369,-5.8487,-5.8501,-5.8542,-5.8726,-5.8732,-5.8583,-5.859,-5.8595,-5.8598,0,0,0,0,0,0,0,-5.806,-5.8085,-5.8338,-5.8273,-5.8276,-5.8262,-5.8278,-5.84,-5.8442,-5.8347,-5.8344,-5.8364,-5.8487,-5.8531,-5.8545,-5.8735,-5.8583,-5.8593,-5.86,-5.8604,-5.9064,-5.907,0,0,0,0,0,0,-5.8049,-5.8077,-5.8333,-5.8342,-5.8158,-5.8272,-5.829,-5.8354,-5.844,-5.8449,-5.8368,-5.8361,-5.8515,-5.8532,-5.855,-5.8754,-5.8595,-5.8605,-5.8611,-5.9059,-5.9066,-5.9072,0,0,0,0,0,0,-5.8042,-5.8072,-5.8326,-5.8209,-5.824,-5.8284,-5.8356,-5.836,-5.8404,-5.8456,-5.8463,-5.8405,-5.8512,-5.8535,-5.8677,-5.8759,-5.861,-5.862,-5.9052,-5.9061,-5.9069,-5.9163,0,0,0,0,0,0,-5.8032,-5.807,-5.8136,-5.8211,-5.8247,-5.8452,-5.8361,-5.8367,-5.8424,-5.8416,-5.8493,-5.8501,-5.8509,-5.8661,-5.8688,-5.8771,-5.8629,-5.9045,-5.9056,-5.9066,-5.9152,-5.9173,-5.9191,0,0,0,0,0,-5.8019,-5.8155,-5.814,-5.8171,-5.833,-5.8457,-5.8477,-5.8486,-5.8431,-5.8497,-5.853,-5.8498,-5.8745,-5.8676,-5.8706,-5.8794,-5.904,-5.9053,-5.9065,-5.9144,-5.9169,-5.9191,0,0,0,0,0,0,-5.8088,-5.8165,-5.8148,-5.8313,-5.8379,-5.8448,-5.8532,-5.8512,-5.8594,-5.8583,-5.8589,-5.8606,-5.8752,-5.8787,-5.8708,-5.8961,-5.8884,-5.8903,-5.8934,-5.8958,-5.8977,-5.8965,-5.8638,0,0,0,0,0,-5.8122,-5.822,-5.8282,-5.8421,-5.8455,-5.8488,-5.8543,-5.8544,-5.8612,-5.8639,-5.8683,-5.8749,-5.8841,-5.8901,-5.8989,-5.9157,-5.9172,-5.9232,-5.9251,-5.9267,-5.9283,-5.9374,-5.9401,-5.9113,-5.9113,-5.9113,0,0,-5.8194,-5.8248,-5.831,-5.8436,-5.8487,-5.8587,-5.8512,-5.8621,-5.8694,-5.8655,-5.8793,-5.8827,-5.89,-5.9056,-5.9127,-5.9089,-5.9366,-5.9283,-5.9295,-5.9303,-5.9389,-5.9417,-5.9441,-5.9122,-5.912,-5.9119,0,0,-5.8375,-5.8427,-5.8548,-5.8602,-5.868,-5.8701,-5.873,-5.8803,-5.8825,-5.8963,-5.8935,-5.9022,-5.9181,-5.9235,-5.9283,-5.9484,-5.9458,-5.9512,-5.9613,-5.9701,-5.9724,-5.9744,-5.9815,-5.984,-5.9529,-5.9529,-5.9529,0,-5.8454,-5.8605,-5.8613,-5.8725,-5.878,-5.8751,-5.8873,-5.8923,-5.9027,-5.9065,-5.9022,-5.9221,-5.9269,-5.9436,-5.9485,-5.9525,-5.9557,-5.9504,-5.972,-5.974,-5.9759,-5.9827,-5.9854,-5.9535,-5.9534,-5.9534,-5.9533,0,-5.8698,-5.8803,-5.8891,-5.8993,-5.9058,-5.9174,-5.9198,-5.9263,-5.9258,-5.9283,-5.9423,-5.948,-5.9578,-5.9618,-5.9613,-5.9784,-5.9759,-5.9718,-5.964,-5.9793,-5.9856,-5.9882,-5.9544,-5.9542,-5.954,-5.9538,0,0,-5.8927,-5.9031,-5.9064,-5.9109,-5.9194,-5.9274,-5.9388,-5.9486,-5.9541,-5.9613,-5.9708,-5.9843,-5.9806,-5.9861,-5.9862,-5.9939,-6.0094,-5.9889,-5.9891,-5.9925,-6.0285,-6.0315,-6.0345,-6.0078,-6.0083,-6.0087,-6.0278,0,-5.9115,-5.9317,-5.9327,-5.951,-5.9607,-5.958,-5.9679,-5.9741,-5.9767,-5.9851,-5.9879,-5.9975,-5.9919,-5.9952,-6.0027,-6.006,-6.0167,-6.0046,-6.0164,-6.0169,-6.0146,-6.0378,-6.041,-6.0588,-6.0303,-6.0308,-6.0311,0,-5.9362,-5.9442,-5.9636,-5.9706,-5.9747,-5.9836,-5.9926,-6.0007,-6.0076,-6.009,-6.0151,-6.0141,-6.0256,-6.0175,-6.0332,-6.025,-6.0299,-6.0322,-6.0329,-6.034,-6.0248,-6.0394,-6.0645,-6.0672,-6.035,-6.0347,-6.0344,0,-5.9508,-5.9665,-5.9801,-5.9841,-5.9927,-5.999,-6.0028,-6.0093,-6.015,-6.0228,-6.0266,-6.0355,-6.0404,-6.0473,-6.0487,-6.0427,-6.0645,-6.0565,-6.0658,-6.0658,-6.0704,-6.0701,-6.0966,-6.0737,-6.0737,-6.0736,-6.0736,0,-5.9717,-5.9836,-5.9868,-5.9952,-6.0084,-6.0093,-6.0223,-6.0257,-6.0314,-6.0402,-6.0384,-6.0467,-6.0481,-6.0566,-6.0578,-6.0706,-6.0728,-6.0741,-6.0743,-6.0743,-6.0741,-6.0774,-6.0762,-6.0743,-6.0742,-6.074,-6.0739,0,-5.9903,-5.993,-6.0076,-6.0146,-6.0166,-6.026,-6.0319,-6.0398,-6.0422,-6.0534,-6.056,-6.0598,-6.0698,-6.0718,-6.0836,-6.0843,-6.0996,-6.0985,-6.0973,-6.0972,-6.1063,-6.1054,-6.1358,-6.1398,-6.1144,-6.1146,-6.1148,0,-6.0035,-6.0126,-6.0205,-6.0264,-6.0306,-6.04,-6.0459,-6.0472,-6.0534,-6.0619,-6.0688,-6.0786,-6.0865,-6.1025,-6.1061,-6.1151,-6.1142,-6.1242,-6.1155,-6.1152,-6.1142,-6.1137,-6.1145,-6.1259,-6.1262,-6.1264,-6.1266,0,-6.0264,-6.0273,-6.036,-6.0452,-6.0523,-6.0595,-6.0664,-6.0713,-6.0734,-6.0804,-6.0907,-6.0968,-6.1089,-6.1186,-6.1276,-6.1313,-6.1293,-6.1293,-6.1319,-6.132,-6.1308,-6.1315,-6.1018,-6.1286,-6.1284,-6.1282,-6.1281,-6.128,-6.0427,-6.0506,-6.0575,-6.0672,-6.0725,-6.079,-6.0867,-6.0902,-6.0988,-6.1088,-6.109,-6.1201,-6.1266,-6.1385,-6.1428,-6.1514,-6.1483,-6.1521,-6.153,-6.1539,-6.1547,-6.1296,-6.1531,-6.153,-6.153,-6.1529,-6.1529,0,-6.0655,-6.0698,-6.0787,-6.0884,-6.096,-6.0936,-6.1011,-6.1075,-6.1175,-6.1238,-6.1316,-6.1434,-6.1527,-6.1572,-6.1664,-6.1724,-6.1717,-6.1748,-6.1743,-6.1752,-6.1571,-6.1539,-6.1752,-6.1752,-6.1752,-6.1752,-6.1752,-6.1752,-6.0783,-6.0916,-6.0932,-6.1091,-6.1132,-6.1243,-6.1287,-6.1346,-6.1397,-6.1529,-6.1608,-6.1636,-6.1691,-6.1788,-6.1872,-6.1882,-6.1917,-6.1952,-6.1958,-6.1787,-6.1765,-6.1743,-6.1713,-6.1959,-6.196,-6.2131,-6.2133,-6.2134]}]]